Weather History for New Delhi, India

Change the Weather History Date:

Thursday, October 27, 2011

  Actual Average Record
Temperature  
Mean Temperature 72 °F -  
Max Temperature 84 °F 81 °F 96 °F (2000)
Min Temperature 60 °F 57 °F 57 °F (2003)
Cooling Degree Days 7    
Growing Degree Days 22 (Base 50)    
Moisture  
Dew Point 49 °F    
Average Humidity 47    
Maximum Humidity 72    
Minimum Humidity 23    
Precipitation  
Precipitation 0.00 in - - ()
Sea Level Pressure  
Sea Level Pressure 29.94 in    
Wind  
Wind Speed 5 mph ()    
Max Wind Speed 14 mph    
Max Gust Speed -    
Visibility 1.4 miles    
Events      
Averages and records for this station are not official NWS values.
T = Trace of Precipitation, MM = Missing Value Source: Averaged Metar Reports

Daily Weather History Graph

Daily Weather History Graph

Search for Another Location

Airport:

Trip Planner

Search our weather history database for the weather conditions in past years. The results will help you decide how hot, cold, wet, or windy it might be!

Date:

Astronomy

Oct. 27, 2011 Rise Set
Actual Time 6:29 AM IST 5:40 PM IST
Civil Twilight 6:05 AM IST 6:05 PM IST
Nautical Twilight 5:37 AM IST 6:32 PM IST
Astronomical Twilight 5:10 AM IST 7:00 PM IST
Moon 6:50 AM IST (10/27) 5:56 PM IST (10/27)
Length of Visible Light 11h 59m
Length of Day
11h 11m
New Moon, 0% of the Moon is Illuminated
Oct 27
New Moon
Nov 2
First Quarter
Nov 11
Full
Nov 18
Last Quarter
Nov 25
New

Hourly Weather History & Observations

Time (IST) Temp. Dew Point Humidity Pressure Visibility Wind Dir Wind Speed Gust Speed Precip Events Conditions
12:00 AM 73.4 °F 48.2 °F 41% 29.95 in 0.6 mi WSW 5.8 mph - N/A   Smoke
12:30 AM 71.6 °F 50.0 °F 46% 29.92 in 0.7 mi NNW 4.6 mph - N/A   Smoke
1:00 AM 69.8 °F 50.0 °F 49% 29.92 in 0.7 mi West 3.5 mph - N/A   Smoke
2:00 AM 68.0 °F 50.0 °F 52% 29.92 in 0.8 mi SSW 3.5 mph - N/A   Smoke
2:30 AM 66.2 °F 51.8 °F 60% 29.92 in 0.8 mi SW 4.6 mph - N/A   Smoke
3:00 AM 64.4 °F 51.8 °F 64% 29.92 in 0.6 mi SW 3.5 mph - N/A   Smoke
3:30 AM 62.6 °F 51.8 °F 68% 29.92 in 0.6 mi SW 4.6 mph - N/A   Smoke
4:00 AM 62.6 °F 51.8 °F 68% 29.92 in 0.6 mi WSW 3.5 mph - N/A   Smoke
4:30 AM 62.6 °F 51.8 °F 68% 29.92 in 0.7 mi WSW 4.6 mph - N/A   Smoke
5:00 AM 60.8 °F 51.8 °F 72% 29.92 in 0.9 mi WSW 4.6 mph - N/A   Smoke
5:30 AM 60.8 °F 50.0 °F 68% 29.92 in 0.9 mi WSW 5.8 mph - N/A   Smoke
6:00 AM 60.8 °F 51.8 °F 72% 29.92 in 1.1 mi WSW 4.6 mph - N/A   Smoke
6:30 AM 60.8 °F 50.0 °F 68% 29.95 in 1.1 mi SW 3.5 mph - N/A   Smoke
7:00 AM 60.8 °F 50.0 °F 68% 29.95 in 1.1 mi WSW 4.6 mph - N/A   Smoke
7:30 AM 60.8 °F 51.8 °F 72% 29.98 in 1.1 mi West 4.6 mph - N/A   Smoke
8:00 AM 62.6 °F 51.8 °F 68% 29.98 in 1.2 mi WSW 4.6 mph - N/A   Smoke
8:30 AM 64.4 °F 53.6 °F 68% 29.98 in 1.6 mi WSW 4.6 mph - N/A   Smoke
9:00 AM 66.2 °F 51.8 °F 60% 30.01 in 1.6 mi WSW 5.8 mph - N/A   Smoke
10:00 AM 71.6 °F 53.6 °F 53% 30.01 in 1.6 mi West 6.9 mph - N/A   Haze
11:00 AM 77.0 °F 53.6 °F 44% 30.01 in 1.6 mi West 9.2 mph - N/A   Haze
11:30 AM 80.6 °F 51.8 °F 37% 29.98 in 1.7 mi WNW 8.1 mph - N/A   Haze
12:00 PM 80.6 °F 51.8 °F 37% 29.98 in 1.7 mi SSW 11.5 mph - N/A   Haze
12:30 PM 84.2 °F 48.2 °F 29% 29.95 in 2.2 mi WNW 13.8 mph - N/A   Haze
1:00 PM 84.2 °F 48.2 °F 29% 29.95 in 2.2 mi WNW 13.8 mph - N/A   Haze
1:30 PM 84.2 °F 44.6 °F 25% 29.92 in 2.2 mi WNW 10.4 mph - N/A   Haze
2:00 PM 84.2 °F 42.8 °F 23% 29.92 in 2.2 mi WNW 9.2 mph - N/A   Haze
2:30 PM 84.2 °F 44.6 °F 25% 29.92 in 2.2 mi West 10.4 mph - N/A   Haze
3:00 PM 84.2 °F 42.8 °F 23% 29.92 in 2.2 mi West 10.4 mph - N/A   Haze
3:30 PM 84.2 °F 44.6 °F 25% 29.89 in 2.2 mi West 10.4 mph - N/A   Haze
4:00 PM 84.2 °F 44.6 °F 25% 29.89 in 2.2 mi WNW 11.5 mph - N/A   Haze
4:30 PM 82.4 °F 44.6 °F 26% 29.89 in 2.2 mi WNW 10.4 mph - N/A   Haze
5:00 PM 80.6 °F 44.6 °F 28% 29.89 in 2.2 mi West 9.2 mph - N/A   Haze
5:30 PM 78.8 °F 44.6 °F 30% 29.89 in 2.2 mi West 9.2 mph - N/A   Haze
6:00 PM 78.8 °F 46.4 °F 32% 29.92 in - West 5.8 mph - N/A   Haze
7:00 PM 78.8 °F 48.2 °F 34% 29.92 in 1.9 mi NW 4.6 mph - N/A   Haze
7:30 PM 78.8 °F 48.2 °F 34% 29.92 in 1.9 mi NNW 3.5 mph - N/A   Haze
8:00 PM 75.2 °F 50.0 °F 41% 29.95 in 1.6 mi Calm Calm - N/A   Haze
8:30 PM 73.4 °F 50.0 °F 44% 29.95 in 1.4 mi Calm Calm - N/A   Smoke
9:00 PM 71.6 °F 50.0 °F 46% 29.95 in 1.2 mi Calm Calm - N/A   Smoke
9:30 PM 71.6 °F 50.0 °F 46% 29.95 in 1.2 mi Calm Calm - N/A   Smoke
10:00 PM 71.6 °F 50.0 °F 46% 29.95 in 1.0 mi Calm Calm - N/A   Smoke
11:00 PM 69.8 °F 50.0 °F 49% 29.95 in 0.6 mi Calm Calm - N/A   Smoke
11:30 PM 69.8 °F 50.0 °F 49% 29.92 in 0.7 mi Calm Calm - N/A   Smoke